Location: Beaurecueil
(43.5122°N, 5.5450°E)
Time: 01:12:22
(UTC+00:00)

Helios 1A Rocket - Pass Details

Date: 18 September 2020
Orbit: 563 x 586 km, 98.3° (Epoch: 26 October)

Event Time Altitude Azimuth Distance (km) Brightness Sun altitude
Rises 18:05:27 0° 175° (S) 2,772 6.3 -5.1°
Reaches altitude 10° 18:07:36 10° 180° (S) 1,882 5.5 -5.5°
Maximum altitude 18:11:37 57° 259° (WSW) 690 3.8 -6.2°
Drops below altitude 10° 18:15:42 10° 338° (NNW) 1,910 6.0 -6.9°
Sets 18:17:54 0° 343° (NNW) 2,818 6.8 -7.3°
